Алтынай

Россия / Свердловская область     57°04′04″N   61°59′21″E
темп.,
°C
ветер,
м/с
пор.,
м/с
влажн.,
%
обл.,
%
осадки,
мм/ч
давл.,
гПа
погр.,
м
8 марта, пн
пн823:00−16зсз239718 0.0 100729
02:00−18зсз339641 0.0 100754
05:00−20з339520 0.0 100843
08:00−20зюз23960 0.0 100842
11:00−14ю359040 0.0 1007260
14:00−10ю51086100 0.0 1005600
17:00−9ю5989100 0.2 1003612
20:00−8ю51288100 0.0 1002448
9 марта, вт
вт923:00−7ююз61390100 0.0 1001536
02:00−9юз513881 0.0 1002522
05:00−10юз412871 0.0 1003369
08:00−11ююз259467 0.0 1002140
11:00−7в129583 1.9 1001228
14:00−5сз5887100 2.6 1002897
17:00−5зсз3883100 2.8 10061133
20:00−10зюз348795 0.1 100969
10 марта, ср
ср1023:00−11зюз369394 0.1 1011108
02:00−14зюз229480 0.0 101020
05:00−16всв009690 0.0 100920
08:00−14вюв1296100 0.0 100834
11:00−10всв3594100 0.3 1006286
14:00−7всв5894100 1.0 1003513
17:00−8всв61194100 2.3 1001670
20:00−9св61194100 1.6 1000626
11 марта, чт
чт1123:00−12ссв71394100 2.6 1000552
02:00−16ссв71394100 1.1 1000524
05:00−17с61395100 2.0 1002531
08:00−19с61196100 0.8 1004479
11:00−18ссз61094100 1.1 1006474
14:00−16ссз5989100 0.1 1007569
17:00−16ссз5885100 0.1 1008729
20:00−18ссз4993100 0.1 1011614
12 марта, пт
пт1223:00−24ссз339679 0.1 101348
02:00−27сз33980 0.0 101553
05:00−28сз33970 0.0 101766
08:00−29сз36960 0.0 1019101
11:00−20зсз24880 0.0 1019324
14:00−15зюз35792 0.0 1019734
17:00−12з368745 0.1 1019831
20:00−13зюз3894100 0.1 1020229